Tracking 31027 objects as of 19-Jul-2025
HD Live streaming from Space Station
objects crossing your sky now

TRITON 1

Track TRITON 1 now!
10-day predictions
TRITON 1 is classified as:


NORAD ID: 39427
Int'l Code: 2013-066M
Perigee: 573.8 km
Apogee: 703.9 km
Inclination: 97.8 °
Period: 97.3 minutes
Semi major axis: 7009 km
RCS: Unknown
Launch date: November 21, 2013
Source: United Kingdom (UK)
Launch site: Orenburg, Russia (OREN)

Uplink (MHz): 435.xxx
Downlink (MHz): 145.818/145.823*
Beacon (MHz): 2408.000
Mode: 1200bps RC-BPSK CW*
Call sign: TRIV0 TRIV1
Status: Active

Your satellite tracking list
Your tracking list is empty




NASA's NSSDC Master Catalog

Two Line Element Set (TLE):
1 39427U 13066M   25199.90904773  .00001537  00000-0  19963-3 0  9993
2 39427  97.8343 112.6890 0092796 238.3836 120.8295 14.79239322624779
Source of the keplerian elements: Caltech